SL-14 DEB, 44575

Orbit data source: Space-Track

SL-14 DEB, 44575 is space debris in LEO originally from a launch on Thu, 24 Jun 1993 UTC launched from the Plesetsk Missile And Space Complex (PKMTR). Debris objects in space refer to the collection of defunct objects orbiting the Earth. Examples of debris include non-operational satellites, rocket bodies, and fragments generated from explosions, collisions, or faulty payload assembly.

Loading next visibility...
Identifier
44575, 1993-038H
Orbit
LEO
Country
Flag of CISCIS
Related business
Manufacturer
Unknown
Mission
Spacecraft
Bus & Motor
Unknown
Mass
Unknown
Launch date (UTC)
1993-06-24 (33 years ago)
Launch vehicle
Unknown
Launch site
Plesetsk Missile And Space Complex (PKMTR)
Object type
Payload
Rocket body
Debris
Shape & HBR
Unknown shape, 0.1 m
Radar Cross Section
Medium (>0.1 m² and <1 m²)

Expand to show TLE details & history
Last TLE update: 3 days ago

TLE from 3 days ago
0 SL-14 DEB
1 44575U 93038H   26170.44421891  .00000012  00000-0  13136-4 0  9998
2 44575  82.5866 348.1192 0045009 318.9790  40.7915 12.54904835435868
Epoch: 2026-06-19T10:39Z
TLE epoch observation values (Epoch: 2026-06-19T10:39:40.513Z)
Latitude
0.00001°
Longitude
-79.47271°
Altitude
1,420.174 km
Speed
7.163 km/s
True Right ascension
23h 12m 28s
True Declination
0° 00' 00"
Sunlit
Object was in daylight at epoch
Visualization orbit readout
Latitude
Unknown
Longitude
Unknown
Altitude
Unknown
Speed
Unknown
Apparent Right ascension
Unknown
Apparent Declination
Unknown
Sunlit
N/A
Visualization observer readout
Local Sidereal Time
21:34:29
Azimuth
Unknown
Elevation
Unknown
Doppler factor
Unknown
Orbital elements
Apogee altitude
1,476.572 km
Perigee altitude
1,406.182 km
Semi-major axis
7,819.514 km
Eccentricity
0.0045
Inclination
82.5866°
RAAN
348.1192°
Arg. of periapsis
318.979°
True anomaly
41.12989°
Mean anomaly
40.7915°
Eccentric anomaly
40.96055°
Mean motion
3.13887 °/min
Orbital period
114.69 mins
BSTAR
0.000013136
Loading maneuver chart data...
Computing Atmospheric mass density...
Loading historical data...
Loading historical data...
Loading historical data...
Loading historical data...
Loading historical data...
Loading historical data...
Loading historical data...

Documentation

Showing up to 5 results
|